User: anonymous   Login
Location: Radomski Observatory
(40.2854°N, 79.5145°W)
Time: 07:58:45
(UTC-04:00)
Language:

Cosmos 1072 Rocket - Orbit

View from above orbital plane
View from above orbital plane
View from above satellite
View from above satellite

Ground track
Ground track

The orbit data is extracted from the following two-line orbital elements,

1 11239U 79003B   16237.82199216 +.00000014 +00000-0 -19807-5 0  9998
2 11239 082.9398 308.5439 0041758 139.4162 359.3767 13.75801681886844
Epoch (UTC): 24 August 2016 19:43:40
Eccentricity: 0.0041758
inclination: 82.9398°
perigee height: 948 km
apogee height: 1009 km
right ascension of ascending node: 308.5439°
argument of perigee: 139.4162°
revolutions per day: 13.75801681
mean anomaly at epoch: 359.3767°
orbit number at epoch: 88684

The dashed part of the orbit path shows where the satellite is in the earth's shadow,  

DLR